Location: Csohesd
(46.2500°N, 22.6167°E)
Time: 06:06:19
(UTC+00:00)

Cosmos 407 Rocket - Pass Details

Date: 21 October 2021
Orbit: 743 x 787 km, 74.0° (Epoch: 04 December)

Event Time Altitude Azimuth Distance (km) Brightness Sun altitude
Rises 18:24:28 0° 337° (NNW) 3,267 7.3 -30.2°
Reaches altitude 10° 18:26:51 10° 337° (NNW) 2,341 6.4 -30.6°
Enters shadow 18:30:27 44° 335° (NNW) 1,073 4.4 -31.2°
